Regional Weather Roundup
Issued by NWS

Home | Current Version | Previous Version | Text Only | Print | Product List | Glossary Off
Versions: 1 2 3 4 5 6 7 8 9 10 11 12 13 14 15 16 17 18 19 20 21 22 23 24 25 26 27 28 29 30 31 32 33 34 35 36 37 38 39 40 41 42 43 44 45 46 47 48 49 50

000
ASUS45 KCYS 281110
RWRWY

WYOMING REGIONAL WEATHER ROUNDUP
NATIONAL WEATHER SERVICE CHEYENNE WY
400 AM MST FRI NOV 28 2014

NOTE:  "FAIR" INDICATES FEW OR NO CLOUDS BELOW 12,000 FEET
WITH NO SIGNIFICANT WEATHER AND/OR OBSTRUCTIONS TO VISIBILITY.

WYZ001-281200-
YELLOWSTONE NATIONAL PARK

CITY           SKY/WX    TMP DP  RH WIND       PRES   REMARKS
LK YELLOWSTONE   N/A     37  22  54 VRB7      29.99F WCI  32
W YELLOWSTONE  NOT AVBL

$$
WYZ002>013-054>058-071-098>099-281200-
NORTHERN WYOMING

CITY           SKY/WX    TMP DP  RH WIND       PRES   REMARKS
JACKSON        CLOUDY    39  27  60 W9        30.01F WCI  33
CODY           MOCLDY    54  19  26 SW31G49   29.72F
GREYBULL       CLOUDY    31  26  82 S7        29.81F WCI  24
WORLAND        CLOUDY    24  22  91 W3        29.83F
SHERIDAN       CLOUDY    50  26  39 N7        29.71F
BUFFALO        MOCLDY    54  21  27 SE7       29.76F
GILLETTE       CLOUDY    45  28  51 W20       29.73F
HULETT           N/A    N/A N/A N/A MISG        N/A
NEWCASTLE      FAIR      34  27  75 NE5       29.81F WCI  30

$$
WYZ014>020-022>026-101>103-281200-
CENTRAL WYOMING

CITY           SKY/WX    TMP DP  RH WIND       PRES   REMARKS
BIG PINEY      CLOUDY   N/A N/A N/A N3        30.09F
PINEDALE       CLOUDY    18  16  93 NW6       30.09F WCI   9
DUBOIS         FAIR      37  21  52 NW9       29.99F WCI  31
LANDER         MOCLDY    52  15  23 N21G33    29.88F
RIVERTON       MOCLDY    42  21  43 CALM      29.92F
CASPER         CLEAR     41  22  46 W14       29.92F
DOUGLAS        PTCLDY    49  22  34 W10       29.87F

$$
WYZ021-027>030-104>119-281200-
SOUTHERN WYOMING

CITY           SKY/WX    TMP DP  RH WIND       PRES   REMARKS
EVANSTON       PTCLDY    40  15  36 SW13      30.12F WCI  32
FORT BRIDGER   FAIR      40  17  39 SW15      30.13F WCI  32
ROCK SPRINGS   CLOUDY    40  17  39 SW15      30.10F WCI  32
DIXON          FAIR      42  19  39 SW8G16    30.16F
RAWLINS        CLOUDY    44  16  32 SW29G38   30.02F
SARATOGA       FAIR      39  18  41 S14       30.10S WCI  31
LARAMIE        CLEAR     38  16  40 SW14      30.05F WCI  30
CHEYENNE       MOCLDY    50  14  23 W10       30.00F
TORRINGTON     PTCLDY    50  22  33 W10       29.86F
PINE BLUFFS    FAIR      48  19  32 SW21      29.95F

$$



USA.gov is the U.S. government's official web portal to all federal, state and local government web resources and services.